Weather in Furmanov

Russia / Orenburg Oblast     52°03′54″N   51°37′12″E
temp.,
°C
wind,
m/s
gust,
m/s
humid.,
%
clouds,
%
prec.,
mm/h
press.,
hPa
HPBL,
m
28 february, sun
sun2823:000wsw5998100 0.4 999460
02:000sw5898100 0.9 999380
05:00−4nw6796100 2.1 1000223
08:00−13nnw7129290 0.1 1002328
11:00−14nw7119293 0.2 1004398
14:00−13nw71092100 0.1 1006407
17:00−14nw61092100 0.1 1009417
20:00−16nw4109599 0.0 1011229
1 march, mon
mon123:00−18nw479691 0.1 1014118
02:00−19nw469766 0.0 101599
05:00−19nw469770 0.0 101795
08:00−17nw489594 0.1 1018218
11:00−17nw479489 0.1 1020238
14:00−16nw469234 0.0 1021248
17:00−16nw479217 0.0 1022273
20:00−20wnw33970 0.0 102325
2 march, tue
tue223:00−21w23993 0.0 102320
02:00−21w33997 0.0 102323
05:00−20sw3410024 0.0 102159
08:00−18ssw499887 0.0 1018159
11:00−15ssw6119794 0.1 1015289
14:00−9ssw81394100 0.3 1012472
17:00−5ssw91595100 1.3 1009816
20:00−3sw81495100 0.8 1005737
3 march, wed
wed323:00−3sw71396100 1.6 1003619
02:00−2sw61197100 0.8 1001409
05:00−1w489699 1.4 1001312
08:00−7w479689 0.1 1001127
11:00−6wnw489593 0.1 1003270
14:00−3wnw5894100 0.1 1003446
17:00−3wnw6992100 0.1 1004562
20:00−4wnw499689 0.2 1005218
4 march, thu
thu423:00−6nw479686 0.3 1008114
02:00−6wnw499592 0.0 1008195
05:00−9nw599576 0.0 1010183
08:00−10nw5119465 0.0 1012231
11:00−10nw499460 0.0 1015245
14:00−8w479259 0.0 1016284
17:00−8wsw599141 0.0 1017320
20:00−10sw6139430 0.0 1016313